[[[{"header":{"parameterUnit":"kt","parameterCategory":2,"dx":1,"dy":1,"la1":30.253999710083008,"la2":30.299108505249023,"lo1":-89.0895004272461,"lo2":-89.04439544677734,"nx":28,"ny":28,"refTime":"2022-09-24T21:00:00:Z","depth":0,"parameterNumber":1,"parameterNumberName":"U-component_of_WINDS"},"data":[-1.9217,-1.9276,-1.9261,-1.9321,-1.9318,-1.9357,-1.9366,-1.9376,-1.9381,-1.9425,-1.9448,-1.9439,-1.9437,-1.9461,-1.9485,-1.9481,-1.9493,-1.9524,-1.9514,-1.9387,-1.9368,-1.935,-1.9336,-1.9526,-1.9527,-1.9649,-1.9651,-1.9651,-1.9125,-1.9122,-1.915,-1.9167,-1.919,-1.9151,-1.9161,-1.9183,-1.9219,-1.9224,-1.9246,-1.9283,-1.9311,-1.9299,-1.9323,-1.9351,-1.9335,-1.9359,-1.9358,-1.9359,-1.9221,-1.9206,-1.9371,-1.9371,-1.9371,-1.9371,-1.9371,-1.9371,-1.8953,-1.8989,-1.899,-1.902,-1.9024,-1.9035,-1.9067,-1.9055,-1.9081,-1.9105,-1.9082,-1.9122,-1.9125,-1.9147,-1.915,-1.9181,-1.9152,-1.9174,-1.918,-1.9187,-1.9197,-1.9026,-1.9184,-1.9184,-1.9183,-1.9183,-1.9182,0,-1.8824,-1.8809,-1.8834,-1.8855,-1.8876,-1.8891,-1.8902,-1.892,-1.8884,-1.8908,-1.894,-1.8957,-1.8989,-1.9018,-1.9038,-1.9037,-1.9001,-1.8994,-1.901,-1.9024,-1.9033,-1.9031,-1.881,-1.899,-1.8989,-1.8987,-1.8986,-1.8986,-1.8652,-1.8695,-1.8689,-1.8708,-1.8711,-1.8743,-1.8759,-1.8724,-1.8742,-1.8751,-1.8784,-1.8812,-1.8833,-1.8888,-1.8874,-1.8899,-1.8882,-1.8953,-1.8885,-1.8896,-1.8886,-1.8885,-1.8889,-1.8968,-1.897,-1.8972,-1.8973,0,-1.8557,-1.8533,-1.8594,-1.8584,-1.8582,-1.8629,-1.862,-1.8654,-1.8639,-1.8683,-1.8691,-1.8668,-1.8701,-1.8675,-1.8707,-1.8693,-1.8771,-1.8752,-1.877,-1.8765,-1.8828,-1.8824,-1.9031,-1.9057,-1.8857,-1.8859,-1.8861,0,-1.8402,-1.8459,-1.842,-1.8457,-1.8519,-1.8482,-1.8544,-1.8537,-1.8539,-1.8574,-1.8527,-1.856,-1.8522,-1.8552,-1.8531,-1.8589,-1.8594,-1.8588,-1.8582,-1.8594,-1.8595,-1.8606,-1.8598,-1.8565,-1.8564,-1.8563,-1.8562,0,-1.8258,-1.8303,-1.8362,-1.8369,-1.8364,-1.8393,-1.8392,-1.8393,-1.841,-1.8426,-1.8436,-1.8458,-1.8471,-1.8489,-1.8462,-1.8418,-1.8532,-1.8465,-1.8526,-1.8527,-1.8555,-1.8554,-1.8742,-1.8561,-1.856,-1.856,-1.856,0,-1.813,-1.8147,-1.8236,-1.8231,-1.8245,-1.8284,-1.8303,-1.833,-1.8335,-1.8324,-1.8337,-1.8303,-1.8351,-1.8287,-1.8352,-1.8302,-1.8317,-1.8314,-1.8318,-1.8324,-1.8254,-1.8366,-1.8545,-1.8564,-1.8325,-1.8323,-1.8321,0,-1.7973,-1.8056,-1.8025,-1.811,-1.8145,-1.8091,-1.8133,-1.8139,-1.8128,-1.8156,-1.8143,-1.8176,-1.8122,-1.8129,-1.8164,-1.8154,-1.8219,-1.8144,-1.8187,-1.8189,-1.819,-1.8354,-1.8389,-1.8508,-1.8296,-1.8298,-1.83,0,-1.7848,-1.7842,-1.7859,-1.7866,-1.7867,-1.7896,-1.7944,-1.7968,-1.7989,-1.7999,-1.804,-1.8084,-1.8046,-1.8058,-1.8033,-1.8071,-1.8174,-1.8026,-1.8025,-1.8055,-1.828,-1.8313,-1.8333,-1.8148,-1.8151,-1.8154,-1.828,0,-1.7664,-1.7702,-1.7747,-1.7763,-1.778,-1.7832,-1.7805,-1.7827,-1.7801,-1.7789,-1.7847,-1.7845,-1.787,-1.7885,-1.786,-1.7955,-1.7936,-1.7895,-1.7834,-1.794,-1.7981,-1.7998,-1.7774,-1.7772,-1.7771,-1.7769,0,0,-1.7521,-1.7575,-1.754,-1.7586,-1.7599,-1.7542,-1.76,-1.7606,-1.762,-1.7631,-1.7595,-1.7658,-1.7659,-1.7733,-1.7763,-1.7773,-1.7788,-1.7752,-1.7889,-1.7902,-1.7915,-1.7959,-1.7977,-1.7766,-1.7766,-1.7765,-1.7765,0,-1.7449,-1.7449,-1.7507,-1.7511,-1.7517,-1.7501,-1.7514,-1.751,-1.7505,-1.7561,-1.7515,-1.7546,-1.7597,-1.7604,-1.7615,-1.7741,-1.7706,-1.7751,-1.7829,-1.7873,-1.7889,-1.7902,-1.7949,-1.7967,-1.776,-1.7761,-1.7761,0,-1.7323,-1.732,-1.7344,-1.7371,-1.7374,-1.7412,-1.7339,-1.7381,-1.7409,-1.7345,-1.7402,-1.7398,-1.7405,-1.7477,-1.7509,-1.7478,-1.7633,-1.7578,-1.7588,-1.7592,-1.7633,-1.7652,-1.7669,-1.7448,-1.7447,-1.7446,0,0,-1.7265,-1.73,-1.7286,-1.7354,-1.7359,-1.7336,-1.7352,-1.7329,-1.7336,-1.7339,-1.7333,-1.7342,-1.7371,-1.7391,-1.7417,-1.75,-1.75,-1.7541,-1.7556,-1.7568,-1.7578,-1.7623,-1.7642,-1.7443,-1.7443,-1.7442,0,0,-1.7237,-1.7223,-1.7196,-1.7271,-1.728,-1.7271,-1.7313,-1.728,-1.7301,-1.7292,-1.7254,-1.7255,-1.7322,-1.732,-1.7274,-1.7395,-1.7334,-1.7344,-1.7394,-1.7413,-1.7427,-1.7427,-1.7201,0,0,0,0,0,-1.715,-1.7225,-1.72,-1.7209,-1.7243,-1.7284,-1.7288,-1.7259,-1.7216,-1.725,-1.724,-1.72,-1.7287,-1.7245,-1.7255,-1.7308,-1.7395,-1.7404,-1.7411,-1.7495,-1.7515,-1.7531,0,0,0,0,0,0,-1.7153,-1.7164,-1.7198,-1.7193,-1.72,-1.7281,-1.7202,-1.7196,-1.7212,-1.7203,-1.7203,-1.72,-1.7176,-1.7238,-1.7247,-1.7298,-1.7198,-1.7398,-1.7406,-1.7412,-1.7502,-1.7518,-1.7531,0,0,0,0,0,-1.7155,-1.7164,-1.7226,-1.7192,-1.7198,-1.7176,-1.7199,-1.7194,-1.7205,-1.7189,-1.7185,-1.7181,-1.7178,-1.7183,-1.7244,-1.7295,-1.7191,-1.7195,-1.7403,-1.7409,-1.7414,-1.751,0,0,0,0,0,0,-1.7157,-1.7159,-1.7226,-1.7227,-1.7161,-1.7171,-1.7172,-1.7192,-1.7189,-1.7186,-1.7165,-1.7159,-1.718,-1.7184,-1.7189,-1.7296,-1.7186,-1.719,-1.7192,-1.7407,-1.7412,-1.7416,0,0,0,0,0,0,-1.7154,-1.716,-1.7227,-1.719,-1.7186,-1.7167,-1.7167,-1.7214,-1.719,-1.7165,-1.716,-1.7162,-1.7174,-1.7185,-1.7188,-1.7263,-1.7182,-1.7185,-1.7188,-1.7189,-1.7411,-1.7414,0,0,0,0,0,0,-1.7156,-1.7161,-1.719,-1.7187,-1.7183,-1.719,-1.7207,-1.7244,-1.7158,-1.7166,-1.715,-1.7146,-1.7176,-1.7179,-1.7189,-1.7262,-1.7262,-1.7182,-1.7184,-1.7186,-1.7187,0,0,0,0,0,0,0,-1.7158,-1.7131,-1.7221,-1.7184,-1.7181,-1.7235,-1.7235,-1.7235,-1.7157,-1.7154,-1.7151,-1.7147,-1.7163,-1.7167,-1.717,-1.7261,0,0,-1.7182,-1.7183,0,0,0,0,0,0,0,0,-1.7128,-1.713,-1.7221,-1.7222,-1.7222,-1.7235,-1.7235,-1.7235,-1.7157,-1.7154,-1.7151,-1.7149,-1.7164,-1.7167,-1.717,0,0,0,0,0,0,0,0,0,0,0,0,0,0,0,-1.7222,-1.7222,0,-1.7235,-1.7235,-1.7235,-1.7156,-1.7154,-1.7152,-1.715,-1.7165,-1.7167,-1.717,0,0,0,0,0,0,0,0,0,0,0,0,0,0,0,0,0,0,0,0,0,0,0,0,0,0,0,0,0,0,0,0,0,0,0,0,0,0,0,0,0,0,0,0,0,0,0,0,0,0,0,0,0,0,0,0,0,0,0,0,0,0,0,0,0,0,0,0,0]}],[{"header":{"parameterUnit":"kt","parameterCategory":2,"dx":1,"dy":1,"la1":30.253999710083008,"la2":30.299108505249023,"lo1":-89.0895004272461,"lo2":-89.04439544677734,"nx":28,"ny":28,"refTime":"2022-09-24T21:00:00:Z","depth":0,"parameterNumber":2,"parameterNumberName":"V-component_of_WINDS"},"data":[-7.3987,-7.4001,-7.3999,-7.4014,-7.4014,-7.4022,-7.4024,-7.4026,-7.4026,-7.4035,-7.4038,-7.4034,-7.4031,-7.4032,-7.4034,-7.4032,-7.4033,-7.4043,-7.4038,-7.4003,-7.3998,-7.3993,-7.3991,-7.4043,-7.4043,-7.4076,-7.4076,-7.4076,-7.3969,-7.397,-7.3976,-7.3981,-7.3986,-7.3977,-7.3978,-7.3983,-7.3989,-7.3988,-7.3991,-7.3996,-7.3998,-7.399,-7.3991,-7.3995,-7.399,-7.3996,-7.3996,-7.3996,-7.3958,-7.3956,-7.4001,-7.4001,-7.4001,-7.4001,-7.4001,-7.4001,-7.3935,-7.3943,-7.3944,-7.395,-7.3951,-7.3953,-7.3958,-7.3954,-7.3958,-7.3959,-7.3952,-7.3957,-7.3953,-7.3949,-7.3945,-7.3949,-7.394,-7.3944,-7.3945,-7.3947,-7.3952,-7.391,-7.3947,-7.3947,-7.3947,-7.3947,-7.3947,0,-7.391,-7.3908,-7.3912,-7.3916,-7.392,-7.3921,-7.3921,-7.3924,-7.3912,-7.3914,-7.3918,-7.3918,-7.3918,-7.3919,-7.3916,-7.3911,-7.3898,-7.3894,-7.3898,-7.3903,-7.3911,-7.391,-7.3851,-7.3892,-7.3892,-7.3892,-7.3891,-7.3891,-7.3878,-7.3885,-7.3882,-7.3886,-7.3884,-7.3889,-7.389,-7.3879,-7.388,-7.3876,-7.3881,-7.3882,-7.3882,-7.3884,-7.3873,-7.3871,-7.3864,-7.3882,-7.3864,-7.387,-7.3867,-7.3868,-7.387,-7.3886,-7.3886,-7.3887,-7.3888,0,-7.386,-7.3853,-7.3862,-7.3857,-7.3856,-7.3863,-7.3857,-7.3862,-7.3854,-7.3859,-7.386,-7.3847,-7.3848,-7.3834,-7.383,-7.3822,-7.3835,-7.3827,-7.3838,-7.3837,-7.3853,-7.3852,-7.3901,-7.3908,-7.3852,-7.3853,-7.3853,0,-7.383,-7.3838,-7.3827,-7.3833,-7.3843,-7.383,-7.384,-7.3834,-7.3829,-7.3832,-7.3816,-7.3819,-7.38,-7.38,-7.3789,-7.3796,-7.3794,-7.3789,-7.3786,-7.3791,-7.3792,-7.379,-7.3789,-7.3775,-7.3775,-7.3775,-7.3775,0,-7.3804,-7.3806,-7.3815,-7.3813,-7.3806,-7.381,-7.3806,-7.3799,-7.3799,-7.3795,-7.3795,-7.3791,-7.3789,-7.3785,-7.3771,-7.376,-7.3778,-7.3759,-7.3773,-7.3773,-7.3777,-7.3777,-7.3825,-7.3774,-7.3774,-7.3774,-7.3774,0,-7.3777,-7.3777,-7.379,-7.3784,-7.3784,-7.3788,-7.3785,-7.3785,-7.3778,-7.3772,-7.3768,-7.3754,-7.3757,-7.374,-7.3744,-7.3734,-7.3733,-7.3727,-7.3728,-7.3728,-7.3709,-7.374,-7.3786,-7.3791,-7.3728,-7.3728,-7.3728,0,-7.3751,-7.3761,-7.375,-7.3761,-7.3763,-7.3746,-7.375,-7.3744,-7.3736,-7.3735,-7.3724,-7.3722,-7.3706,-7.3703,-7.3707,-7.3695,-7.3708,-7.3692,-7.3691,-7.3691,-7.3697,-7.3738,-7.3749,-7.3777,-7.3722,-7.3723,-7.3723,0,-7.373,-7.372,-7.3722,-7.3721,-7.3711,-7.3711,-7.3714,-7.371,-7.3711,-7.3703,-7.3707,-7.3701,-7.369,-7.3683,-7.367,-7.3674,-7.3699,-7.366,-7.366,-7.367,-7.3717,-7.3729,-7.3733,-7.3689,-7.3689,-7.369,-7.3719,0,-7.3696,-7.3698,-7.3703,-7.3697,-7.3695,-7.3699,-7.3684,-7.3684,-7.3673,-7.3663,-7.3665,-7.3651,-7.3643,-7.3642,-7.3629,-7.3644,-7.3639,-7.3625,-7.3607,-7.3634,-7.3643,-7.3647,-7.3596,-7.3595,-7.3594,-7.3594,0,0,-7.3674,-7.3675,-7.3661,-7.3664,-7.3662,-7.3642,-7.3648,-7.3642,-7.3629,-7.3627,-7.3617,-7.3607,-7.3595,-7.3598,-7.3605,-7.36,-7.3602,-7.3592,-7.3621,-7.3624,-7.3627,-7.3637,-7.3641,-7.3593,-7.3593,-7.3592,-7.3592,0,-7.3658,-7.3651,-7.3657,-7.3652,-7.3642,-7.3631,-7.3633,-7.3618,-7.3612,-7.3612,-7.3593,-7.3591,-7.358,-7.3572,-7.3567,-7.3592,-7.3576,-7.3589,-7.361,-7.3616,-7.362,-7.3623,-7.3634,-7.3638,-7.3591,-7.3591,-7.3591,0,-7.3636,-7.3627,-7.3628,-7.3619,-7.3612,-7.3612,-7.3591,-7.3591,-7.3591,-7.3564,-7.3564,-7.3553,-7.3539,-7.3542,-7.3543,-7.3533,-7.3555,-7.3542,-7.3545,-7.3545,-7.3549,-7.3554,-7.3558,-7.3504,-7.3504,-7.3503,0,0,-7.3624,-7.3625,-7.3609,-7.3614,-7.3612,-7.3594,-7.3592,-7.358,-7.3569,-7.3565,-7.3551,-7.3539,-7.3533,-7.3529,-7.3522,-7.3528,-7.3524,-7.3533,-7.3537,-7.354,-7.3542,-7.3547,-7.3551,-7.3503,-7.3503,-7.3503,0,0,-7.3617,-7.3601,-7.3592,-7.3597,-7.3589,-7.3571,-7.3575,-7.3563,-7.3555,-7.3552,-7.3529,-7.3525,-7.3527,-7.3516,-7.3508,-7.3515,-7.3498,-7.3499,-7.3523,-7.3527,-7.3531,-7.3534,-7.3481,0,0,0,0,0,-7.3594,-7.3603,-7.3596,-7.3594,-7.358,-7.3576,-7.3574,-7.3557,-7.3547,-7.3551,-7.3537,-7.3519,-7.3508,-7.35,-7.3497,-7.3506,-7.3492,-7.3494,-7.3496,-7.3527,-7.3533,-7.3537,0,0,0,0,0,0,-7.3593,-7.3591,-7.3595,-7.3579,-7.3575,-7.3576,-7.3555,-7.355,-7.3546,-7.3543,-7.3523,-7.3519,-7.3502,-7.35,-7.3498,-7.3507,-7.3482,-7.3493,-7.3495,-7.3496,-7.3529,-7.3534,-7.3537,0,0,0,0,0,-7.3592,-7.3591,-7.3574,-7.3578,-7.3575,-7.3556,-7.3554,-7.355,-7.3546,-7.3524,-7.352,-7.3534,-7.3503,-7.35,-7.3499,-7.3508,-7.3483,-7.3483,-7.3494,-7.3495,-7.3496,-7.3531,0,0,0,0,0,0,-7.3592,-7.3586,-7.3573,-7.3571,-7.3573,-7.3555,-7.3552,-7.355,-7.3527,-7.3523,-7.3534,-7.3532,-7.3504,-7.3501,-7.3499,-7.351,-7.3484,-7.3484,-7.3483,-7.3495,-7.3496,-7.3497,0,0,0,0,0,0,-7.3587,-7.3585,-7.3572,-7.3567,-7.3564,-7.3555,-7.3552,-7.3547,-7.3527,-7.3538,-7.3535,-7.3533,-7.3506,-7.3502,-7.35,-7.3493,-7.3485,-7.3485,-7.3484,-7.3484,-7.3496,-7.3497,0,0,0,0,0,0,-7.3586,-7.3584,-7.3567,-7.3565,-7.3563,-7.3544,-7.355,-7.3535,-7.3525,-7.3539,-7.3524,-7.3523,-7.3507,-7.3505,-7.3501,-7.3495,-7.3493,-7.3485,-7.3485,-7.3484,-7.3484,0,0,0,0,0,0,0,-7.3585,-7.36,-7.3583,-7.3564,-7.3562,-7.3557,-7.3556,-7.3556,-7.3525,-7.3525,-7.3524,-7.3523,-7.3489,-7.3488,-7.3488,-7.3496,0,0,-7.3485,-7.3485,0,0,0,0,0,0,0,0,-7.36,-7.36,-7.3582,-7.3582,-7.3582,-7.3557,-7.3556,-7.3556,-7.3525,-7.3525,-7.3524,-7.3524,-7.3489,-7.3488,-7.3488,0,0,0,0,0,0,0,0,0,0,0,0,0,0,0,-7.3582,-7.3582,0,-7.3557,-7.3556,-7.3556,-7.3525,-7.3525,-7.3524,-7.3524,-7.3489,-7.3488,-7.3488,0,0,0,0,0,0,0,0,0,0,0,0,0,0,0,0,0,0,0,0,0,0,0,0,0,0,0,0,0,0,0,0,0,0,0,0,0,0,0,0,0,0,0,0,0,0,0,0,0,0,0,0,0,0,0,0,0,0,0,0,0,0,0,0,0,0,0,0,0]}]]]